Year,Month,Day,Hour,Minute,Value (Times are PST for temperature in C)
2006,07,23,00,00,17.30
2006,07,23,00,01,17.30
2006,07,23,00,02,17.30
2006,07,23,00,03,17.30
2006,07,23,00,04,17.30
2006,07,23,00,05,17.30
2006,07,23,00,06,17.30
2006,07,23,00,07,17.30
2006,07,23,00,08,17.30
2006,07,23,00,09,17.30
2006,07,23,00,10,17.30
2006,07,23,00,11,17.30
2006,07,23,00,12,17.30
2006,07,23,00,13,17.30
2006,07,23,00,14,17.30
2006,07,23,00,15,17.30
2006,07,23,00,16,17.30
2006,07,23,00,17,17.30
2006,07,23,00,18,17.30
2006,07,23,00,19,17.30
2006,07,23,00,20,17.30
2006,07,23,00,21,17.30
2006,07,23,00,22,17.30
2006,07,23,00,23,17.30
2006,07,23,00,24,17.30
2006,07,23,00,25,17.30
2006,07,23,00,26,17.30
2006,07,23,00,27,17.30
2006,07,23,00,28,17.30
2006,07,23,00,29,17.30
2006,07,23,00,30,17.30
2006,07,23,00,31,17.30
2006,07,23,00,32,17.30
2006,07,23,00,33,17.30
2006,07,23,00,34,17.30
2006,07,23,00,35,17.30
2006,07,23,00,36,17.40
2006,07,23,00,37,17.40
2006,07,23,00,38,17.50
2006,07,23,00,39,17.60
2006,07,23,00,40,17.60
2006,07,23,00,41,17.70
2006,07,23,00,42,17.90
2006,07,23,00,43,17.90
2006,07,23,00,44,18.10
2006,07,23,00,45,18.10
2006,07,23,00,46,18.20
2006,07,23,00,47,18.30
2006,07,23,00,48,18.30
2006,07,23,00,49,18.40
2006,07,23,00,50,18.40
2006,07,23,00,51,18.50
2006,07,23,00,52,18.50
2006,07,23,00,53,18.60
2006,07,23,00,54,18.60
2006,07,23,00,55,18.70
2006,07,23,00,56,18.70
2006,07,23,00,57,18.80
2006,07,23,00,58,18.80
2006,07,23,00,59,18.90
2006,07,23,01,00,18.90
2006,07,23,01,01,19.00
2006,07,23,01,02,19.10
2006,07,23,01,03,19.20
2006,07,23,01,04,19.30
2006,07,23,01,05,19.30
2006,07,23,01,06,19.40
2006,07,23,01,07,19.50
2006,07,23,01,08,19.50
2006,07,23,01,09,19.60
2006,07,23,01,10,19.60
2006,07,23,01,11,19.60
2006,07,23,01,12,19.50
2006,07,23,01,13,19.50
2006,07,23,01,14,19.50
2006,07,23,01,15,19.50
2006,07,23,01,16,19.40
2006,07,23,01,17,19.40
2006,07,23,01,18,19.30
2006,07,23,01,19,19.30
2006,07,23,01,20,19.20
2006,07,23,01,21,19.20
2006,07,23,01,22,19.10
2006,07,23,01,23,19.10
2006,07,23,01,24,19.10
2006,07,23,01,25,19.10
2006,07,23,01,26,19.10
2006,07,23,01,27,19.10
2006,07,23,01,28,19.10
2006,07,23,01,29,18.90
2006,07,23,01,30,18.90
2006,07,23,01,31,18.90
2006,07,23,01,32,18.90
2006,07,23,01,33,18.80
2006,07,23,01,34,18.80
2006,07,23,01,35,18.70
2006,07,23,01,36,18.70
2006,07,23,01,37,18.70
2006,07,23,01,38,18.60
2006,07,23,01,39,18.60
2006,07,23,01,40,18.60
2006,07,23,01,41,18.60
2006,07,23,01,42,18.50
2006,07,23,01,43,18.50
2006,07,23,01,44,18.50
2006,07,23,01,45,18.50
2006,07,23,01,46,18.40
2006,07,23,01,47,18.40
2006,07,23,01,48,18.40
2006,07,23,01,49,18.40
2006,07,23,01,50,18.40
2006,07,23,01,51,18.30
2006,07,23,01,52,18.30
2006,07,23,01,53,18.20
2006,07,23,01,54,18.20
2006,07,23,01,55,18.20
2006,07,23,01,56,18.20
2006,07,23,01,57,18.20
2006,07,23,01,58,18.10
2006,07,23,01,59,18.10
2006,07,23,02,00,18.10
2006,07,23,02,01,18.00
2006,07,23,02,02,17.90
2006,07,23,02,03,17.90
2006,07,23,02,04,17.90
2006,07,23,02,05,17.90
2006,07,23,02,06,17.90
2006,07,23,02,07,17.90
2006,07,23,02,08,17.90
2006,07,23,02,09,17.80
2006,07,23,02,10,17.80
2006,07,23,02,11,17.80
2006,07,23,02,12,17.70
2006,07,23,02,13,17.70
2006,07,23,02,14,17.70
2006,07,23,02,15,17.70
2006,07,23,02,16,17.60
2006,07,23,02,17,17.60
2006,07,23,02,18,17.60
2006,07,23,02,19,17.60
2006,07,23,02,20,17.60
2006,07,23,02,21,17.60
2006,07,23,02,22,17.60
2006,07,23,02,23,17.60
2006,07,23,02,24,17.60
2006,07,23,02,25,17.50
2006,07,23,02,26,17.50
2006,07,23,02,27,17.50
2006,07,23,02,28,17.40
2006,07,23,02,29,17.40
2006,07,23,02,30,17.40
2006,07,23,02,31,17.30
2006,07,23,02,32,17.30
2006,07,23,02,33,17.30
2006,07,23,02,34,17.20
2006,07,23,02,35,17.20
2006,07,23,02,36,17.20
2006,07,23,02,37,17.20
2006,07,23,02,38,17.10
2006,07,23,02,39,17.10
2006,07,23,02,40,17.10
2006,07,23,02,41,17.00
2006,07,23,02,42,17.00
2006,07,23,02,43,17.00
2006,07,23,02,44,17.00
2006,07,23,02,45,17.00
2006,07,23,02,46,16.90
2006,07,23,02,47,16.90
2006,07,23,02,48,16.90
2006,07,23,02,49,16.90
2006,07,23,02,50,16.90
2006,07,23,02,51,16.90
2006,07,23,02,52,16.90
2006,07,23,02,53,16.90
2006,07,23,02,54,16.90
2006,07,23,02,55,16.90
2006,07,23,02,56,16.90
2006,07,23,02,57,16.90
2006,07,23,02,58,16.80
2006,07,23,02,59,16.80
2006,07,23,03,00,16.80
2006,07,23,03,01,16.80
2006,07,23,03,02,16.80
2006,07,23,03,03,16.80
2006,07,23,03,04,16.90
2006,07,23,03,05,16.90
2006,07,23,03,06,16.90
2006,07,23,03,07,16.90
2006,07,23,03,08,16.90
2006,07,23,03,09,16.90
2006,07,23,03,10,16.90
2006,07,23,03,11,16.90
2006,07,23,03,12,16.90
2006,07,23,03,13,16.90
2006,07,23,03,14,16.90
2006,07,23,03,15,17.00
2006,07,23,03,16,17.00
2006,07,23,03,17,17.00
2006,07,23,03,18,17.00
2006,07,23,03,19,17.00
2006,07,23,03,20,17.00
2006,07,23,03,21,17.10
2006,07,23,03,22,17.10
2006,07,23,03,23,17.10
2006,07,23,03,24,17.10
2006,07,23,03,25,17.00
2006,07,23,03,26,17.00
2006,07,23,03,27,17.00
2006,07,23,03,28,16.90
2006,07,23,03,29,16.90
2006,07,23,03,30,16.90
2006,07,23,03,31,16.90
2006,07,23,03,32,16.80
2006,07,23,03,33,16.80
2006,07,23,03,34,16.80
2006,07,23,03,35,16.80
2006,07,23,03,36,16.70
2006,07,23,03,37,16.70
2006,07,23,03,38,16.70
2006,07,23,03,39,16.70
2006,07,23,03,40,16.70
2006,07,23,03,41,16.70
2006,07,23,03,42,16.70
2006,07,23,03,43,16.70
2006,07,23,03,44,16.70
2006,07,23,03,45,16.70
2006,07,23,03,46,16.70
2006,07,23,03,47,16.70
2006,07,23,03,48,16.70
2006,07,23,03,49,16.70
2006,07,23,03,50,16.70
2006,07,23,03,51,16.70
2006,07,23,03,52,16.70
2006,07,23,03,53,16.70
2006,07,23,03,54,16.60
2006,07,23,03,55,16.60
2006,07,23,03,56,16.60
2006,07,23,03,57,16.60
2006,07,23,03,58,16.60
2006,07,23,03,59,16.60
2006,07,23,04,00,16.60
2006,07,23,04,01,16.60
2006,07,23,04,02,16.60
2006,07,23,04,03,16.60
2006,07,23,04,04,16.60
2006,07,23,04,05,16.70
2006,07,23,04,06,16.70
2006,07,23,04,07,16.70
2006,07,23,04,08,16.70
2006,07,23,04,09,16.70
2006,07,23,04,10,16.80
2006,07,23,04,11,16.80
2006,07,23,04,12,16.90
2006,07,23,04,13,17.00
2006,07,23,04,14,17.00
2006,07,23,04,15,17.00
2006,07,23,04,16,17.00
2006,07,23,04,17,17.10
2006,07,23,04,18,17.20
2006,07,23,04,19,17.30
2006,07,23,04,20,17.30
2006,07,23,04,21,17.30
2006,07,23,04,22,17.30
2006,07,23,04,23,17.30
2006,07,23,04,24,17.30
2006,07,23,04,25,17.30
2006,07,23,04,26,17.30
2006,07,23,04,27,17.30
2006,07,23,04,28,17.30
2006,07,23,04,29,17.30
2006,07,23,04,30,17.30
2006,07,23,04,31,17.30
2006,07,23,04,32,17.30
2006,07,23,04,33,17.30
2006,07,23,04,34,17.30
2006,07,23,04,35,17.30
2006,07,23,04,36,17.30
2006,07,23,04,37,17.30
2006,07,23,04,38,17.30
2006,07,23,04,39,17.30
2006,07,23,04,40,17.30
2006,07,23,04,41,17.30
2006,07,23,04,42,17.30
2006,07,23,04,43,17.30
2006,07,23,04,44,17.30
2006,07,23,04,45,17.30
2006,07,23,04,46,17.30
2006,07,23,04,47,17.30
2006,07,23,04,48,17.30
2006,07,23,04,49,17.30
2006,07,23,04,50,17.40
2006,07,23,04,51,17.50
2006,07,23,04,52,17.50
2006,07,23,04,53,17.50
2006,07,23,04,54,17.70
2006,07,23,04,55,17.70
2006,07,23,04,56,17.80
2006,07,23,04,57,17.90
2006,07,23,04,58,17.90
2006,07,23,04,59,17.90
2006,07,23,05,00,17.90
2006,07,23,05,01,17.90
2006,07,23,05,02,17.90
2006,07,23,05,03,18.10
2006,07,23,05,04,18.10
2006,07,23,05,05,18.10
2006,07,23,05,06,18.20
2006,07,23,05,07,18.30
2006,07,23,05,08,18.40
2006,07,23,05,09,18.50
2006,07,23,05,10,18.50
2006,07,23,05,11,18.60
2006,07,23,05,12,18.60
2006,07,23,05,13,18.70
2006,07,23,05,14,18.80
2006,07,23,05,15,18.80
2006,07,23,05,16,18.90
2006,07,23,05,17,18.90
2006,07,23,05,18,18.90
2006,07,23,05,19,18.90
2006,07,23,05,20,19.00
2006,07,23,05,21,19.10
2006,07,23,05,22,19.10
2006,07,23,05,23,19.10
2006,07,23,05,24,19.10
2006,07,23,05,25,19.20
2006,07,23,05,26,19.30
2006,07,23,05,27,19.30
2006,07,23,05,28,19.30
2006,07,23,05,29,19.40
2006,07,23,05,30,19.40
2006,07,23,05,31,19.40
2006,07,23,05,32,19.40
2006,07,23,05,33,19.40
2006,07,23,05,34,19.40
2006,07,23,05,35,19.40
2006,07,23,05,36,19.40
2006,07,23,05,37,19.40
2006,07,23,05,38,19.40
2006,07,23,05,39,19.40
2006,07,23,05,40,19.30
2006,07,23,05,41,19.30
2006,07,23,05,42,19.30
2006,07,23,05,43,19.20
2006,07,23,05,44,19.10
2006,07,23,05,45,19.10
2006,07,23,05,46,18.90
2006,07,23,05,47,18.90
2006,07,23,05,48,18.90
2006,07,23,05,49,18.80
2006,07,23,05,50,18.70
2006,07,23,05,51,18.60
2006,07,23,05,52,18.60
2006,07,23,05,53,18.50
2006,07,23,05,54,18.40
2006,07,23,05,55,18.40
2006,07,23,05,56,18.40
2006,07,23,05,57,18.30
2006,07,23,05,58,18.30
2006,07,23,05,59,18.20
2006,07,23,06,00,18.20
2006,07,23,06,01,18.10
2006,07,23,06,02,18.10
2006,07,23,06,03,17.90
2006,07,23,06,04,17.90
2006,07,23,06,05,17.90
2006,07,23,06,06,17.90
2006,07,23,06,07,17.90
2006,07,23,06,08,17.90
2006,07,23,06,09,17.90
2006,07,23,06,10,17.90
2006,07,23,06,11,17.90
2006,07,23,06,12,18.00
2006,07,23,06,13,18.10
2006,07,23,06,14,18.10
2006,07,23,06,15,18.10
2006,07,23,06,16,18.10
2006,07,23,06,17,18.10
2006,07,23,06,18,18.20
2006,07,23,06,19,18.30
2006,07,23,06,20,18.40
2006,07,23,06,21,18.40
2006,07,23,06,22,18.50
2006,07,23,06,23,18.50
2006,07,23,06,24,18.50
2006,07,23,06,25,18.50
2006,07,23,06,26,18.60
2006,07,23,06,27,18.60
2006,07,23,06,28,18.70
2006,07,23,06,29,18.70
2006,07,23,06,30,18.70
2006,07,23,06,31,18.70
2006,07,23,06,32,18.70
2006,07,23,06,33,18.70
2006,07,23,06,34,18.80
2006,07,23,06,35,18.80
2006,07,23,06,36,18.80
2006,07,23,06,37,18.80
2006,07,23,06,38,18.70
2006,07,23,06,39,18.70
2006,07,23,06,40,18.60
2006,07,23,06,41,18.60
2006,07,23,06,42,18.50
2006,07,23,06,43,18.40
2006,07,23,06,44,18.30
2006,07,23,06,45,18.20
2006,07,23,06,46,18.20
2006,07,23,06,47,18.20
2006,07,23,06,48,18.20
2006,07,23,06,49,18.10
2006,07,23,06,50,18.10
2006,07,23,06,51,18.10
2006,07,23,06,52,18.10
2006,07,23,06,53,18.10
2006,07,23,06,54,18.00
2006,07,23,06,55,17.90
2006,07,23,06,56,17.90
2006,07,23,06,57,18.00
2006,07,23,06,58,18.10
2006,07,23,06,59,18.10
2006,07,23,07,00,18.10
2006,07,23,07,01,18.10
2006,07,23,07,02,18.10
2006,07,23,07,03,18.10
2006,07,23,07,04,18.20
2006,07,23,07,05,18.20
2006,07,23,07,06,18.20
2006,07,23,07,07,18.20
2006,07,23,07,08,18.20
2006,07,23,07,09,18.20
2006,07,23,07,10,18.20
2006,07,23,07,11,18.20
2006,07,23,07,12,18.20
2006,07,23,07,13,18.20
2006,07,23,07,14,18.10
2006,07,23,07,15,18.10
2006,07,23,07,16,18.10
2006,07,23,07,17,18.10
2006,07,23,07,18,18.10
2006,07,23,07,19,18.10
2006,07,23,07,20,18.10
2006,07,23,07,21,18.10
2006,07,23,07,22,18.10
2006,07,23,07,23,18.10
2006,07,23,07,24,18.10
2006,07,23,07,25,18.10
2006,07,23,07,26,18.10
2006,07,23,07,27,18.00
2006,07,23,07,28,17.90
2006,07,23,07,29,17.80
2006,07,23,07,30,17.70
2006,07,23,07,31,17.60
2006,07,23,07,32,17.50
2006,07,23,07,33,17.30
2006,07,23,07,34,17.30
2006,07,23,07,35,17.30
2006,07,23,07,36,17.20
2006,07,23,07,37,17.10
2006,07,23,07,38,17.10
2006,07,23,07,39,17.00
2006,07,23,07,40,17.00
2006,07,23,07,41,17.00
2006,07,23,07,42,17.10
2006,07,23,07,43,17.10
2006,07,23,07,44,17.10
2006,07,23,07,45,17.30
2006,07,23,07,46,17.40
2006,07,23,07,47,17.50
2006,07,23,07,48,17.70
2006,07,23,07,49,17.90
2006,07,23,07,50,18.10
2006,07,23,07,51,18.20
2006,07,23,07,52,18.30
2006,07,23,07,53,18.50
2006,07,23,07,54,18.50
2006,07,23,07,55,18.60
2006,07,23,07,56,18.70
2006,07,23,07,57,18.80
2006,07,23,07,58,18.90
2006,07,23,07,59,19.00
2006,07,23,08,00,19.10
2006,07,23,08,01,19.10
2006,07,23,08,02,19.30
2006,07,23,08,03,19.40
2006,07,23,08,04,19.40
2006,07,23,08,05,19.50
2006,07,23,08,06,19.60
2006,07,23,08,07,19.60
2006,07,23,08,08,19.60
2006,07,23,08,09,19.60
2006,07,23,08,10,19.70
2006,07,23,08,11,19.70
2006,07,23,08,12,19.70
2006,07,23,08,13,19.70
2006,07,23,08,14,19.70
2006,07,23,08,15,19.60
2006,07,23,08,16,19.50
2006,07,23,08,17,19.40
2006,07,23,08,18,19.30
2006,07,23,08,19,19.20
2006,07,23,08,20,19.00
2006,07,23,08,21,18.80
2006,07,23,08,22,18.80
2006,07,23,08,23,18.50
2006,07,23,08,24,18.40
2006,07,23,08,25,18.30
2006,07,23,08,26,18.20
2006,07,23,08,27,18.30
2006,07,23,08,28,18.30
2006,07,23,08,29,18.30
2006,07,23,08,30,18.30
2006,07,23,08,31,18.40
2006,07,23,08,32,18.50
2006,07,23,08,33,18.50
2006,07,23,08,34,18.60
2006,07,23,08,35,18.60
2006,07,23,08,36,18.60
2006,07,23,08,37,18.60
2006,07,23,08,38,18.60
2006,07,23,08,39,18.70
2006,07,23,08,40,18.70
2006,07,23,08,41,18.70
2006,07,23,08,42,18.70
2006,07,23,08,43,18.80
2006,07,23,08,44,18.80
2006,07,23,08,45,18.80
2006,07,23,08,46,18.90
2006,07,23,08,47,18.90
2006,07,23,08,48,19.00
2006,07,23,08,49,19.10
2006,07,23,08,50,19.10
2006,07,23,08,51,19.10
2006,07,23,08,52,19.10
2006,07,23,08,53,19.10
2006,07,23,08,54,19.20
2006,07,23,08,55,19.20
2006,07,23,08,56,19.20
2006,07,23,08,57,19.40
2006,07,23,08,58,19.40
2006,07,23,08,59,19.40
2006,07,23,09,00,19.40
2006,07,23,09,01,19.30
2006,07,23,09,02,19.30
2006,07,23,09,03,19.20
2006,07,23,09,04,19.20
2006,07,23,09,05,19.30
2006,07,23,09,06,19.30
2006,07,23,09,07,19.30
2006,07,23,09,08,19.30
2006,07,23,09,09,19.20
2006,07,23,09,10,19.00
2006,07,23,09,11,18.90
2006,07,23,09,12,18.70
2006,07,23,09,13,18.50
2006,07,23,09,14,18.40
2006,07,23,09,15,18.20
2006,07,23,09,16,18.20
2006,07,23,09,17,18.20
2006,07,23,09,18,18.20
2006,07,23,09,19,18.20
2006,07,23,09,20,18.20
2006,07,23,09,21,18.30
2006,07,23,09,22,18.30
2006,07,23,09,23,18.30
2006,07,23,09,24,18.20
2006,07,23,09,25,18.20
2006,07,23,09,26,18.00
2006,07,23,09,27,17.90
2006,07,23,09,28,17.80
2006,07,23,09,29,17.70
2006,07,23,09,30,17.60
2006,07,23,09,31,17.40
2006,07,23,09,32,17.30
2006,07,23,09,33,17.20
2006,07,23,09,34,17.20
2006,07,23,09,35,17.20
2006,07,23,09,36,17.30
2006,07,23,09,37,17.30
2006,07,23,09,38,17.20
2006,07,23,09,39,17.20
2006,07,23,09,40,17.20
2006,07,23,09,41,17.20
2006,07,23,09,42,17.10
2006,07,23,09,43,17.00
2006,07,23,09,44,17.00
2006,07,23,09,45,17.00
2006,07,23,09,46,17.00
2006,07,23,09,47,17.00
2006,07,23,09,48,17.10
2006,07,23,09,49,17.20
2006,07,23,09,50,17.20
2006,07,23,09,51,17.20
2006,07,23,09,52,17.20
2006,07,23,09,53,17.30
2006,07,23,09,54,17.30
2006,07,23,09,55,17.50
2006,07,23,09,56,17.70
2006,07,23,09,57,17.80
2006,07,23,09,58,17.90
2006,07,23,09,59,17.90
2006,07,23,10,00,17.90
2006,07,23,10,01,18.00
2006,07,23,10,02,18.10
2006,07,23,10,03,18.10
2006,07,23,10,04,18.20
2006,07,23,10,05,18.20
2006,07,23,10,06,18.20
2006,07,23,10,07,18.30
2006,07,23,10,08,18.30
2006,07,23,10,09,18.30
2006,07,23,10,10,18.40
2006,07,23,10,11,18.50
2006,07,23,10,12,18.50
2006,07,23,10,13,18.60
2006,07,23,10,14,18.70
2006,07,23,10,15,18.80
2006,07,23,10,16,18.80
2006,07,23,10,17,18.90
2006,07,23,10,18,18.90
2006,07,23,10,19,18.90
2006,07,23,10,20,19.00
2006,07,23,10,21,19.10
2006,07,23,10,22,19.20
2006,07,23,10,23,19.40
2006,07,23,10,24,19.40
2006,07,23,10,25,19.40
2006,07,23,10,26,19.40
2006,07,23,10,27,19.40
2006,07,23,10,28,19.40
2006,07,23,10,29,19.40
2006,07,23,10,30,19.40
2006,07,23,10,31,19.40
2006,07,23,10,32,19.50
2006,07,23,10,33,19.60
2006,07,23,10,34,19.70
2006,07,23,10,35,19.70
2006,07,23,10,36,19.70
2006,07,23,10,37,19.70
2006,07,23,10,38,19.70
2006,07,23,10,39,19.80
2006,07,23,10,40,19.80
2006,07,23,10,41,19.80
2006,07,23,10,42,19.90
2006,07,23,10,43,19.90
2006,07,23,10,44,19.90
2006,07,23,10,45,20.00
2006,07,23,10,46,20.00
2006,07,23,10,47,19.90
2006,07,23,10,48,19.90
2006,07,23,10,49,19.90
2006,07,23,10,50,19.80
2006,07,23,10,51,19.80
2006,07,23,10,52,19.80
2006,07,23,10,53,19.70
2006,07,23,10,54,19.70
2006,07,23,10,55,19.60
2006,07,23,10,56,19.60
2006,07,23,10,57,19.60
2006,07,23,10,58,19.60
2006,07,23,10,59,19.50
2006,07,23,11,00,19.50
2006,07,23,11,01,19.40
2006,07,23,11,02,19.40
2006,07,23,11,03,19.30
2006,07,23,11,04,19.30
2006,07,23,11,05,19.30
2006,07,23,11,06,19.40
2006,07,23,11,07,19.40
2006,07,23,11,08,19.50
2006,07,23,11,09,19.50
2006,07,23,11,10,19.40
2006,07,23,11,11,19.30
2006,07,23,11,12,19.30
2006,07,23,11,13,19.30
2006,07,23,11,14,19.30
2006,07,23,11,15,19.40
2006,07,23,11,16,19.50
2006,07,23,11,17,19.50
2006,07,23,11,18,19.50
2006,07,23,11,19,19.60
2006,07,23,11,20,19.60
2006,07,23,11,21,19.70
2006,07,23,11,22,19.70
2006,07,23,11,23,19.80
2006,07,23,11,24,19.80
2006,07,23,11,25,19.80
2006,07,23,11,26,19.80
2006,07,23,11,27,19.70
2006,07,23,11,28,19.70
2006,07,23,11,29,19.70
2006,07,23,11,30,19.80
2006,07,23,11,31,19.80
2006,07,23,11,32,19.90
2006,07,23,11,33,19.90
2006,07,23,11,34,19.90
2006,07,23,11,35,19.90
2006,07,23,11,36,19.90
2006,07,23,11,37,19.90
2006,07,23,11,38,19.90
2006,07,23,11,39,19.90
2006,07,23,11,40,19.90
2006,07,23,11,41,20.10
2006,07,23,11,42,20.10
2006,07,23,11,43,20.10
2006,07,23,11,44,20.10
2006,07,23,11,45,20.10
2006,07,23,11,46,20.10
2006,07,23,11,47,20.20
2006,07,23,11,48,20.20
2006,07,23,11,49,20.20
2006,07,23,11,50,20.30
2006,07,23,11,51,20.40
2006,07,23,11,52,20.50
2006,07,23,11,53,20.60
2006,07,23,11,54,20.60
2006,07,23,11,55,20.70
2006,07,23,11,56,20.70
2006,07,23,11,57,20.70
2006,07,23,11,58,20.70
2006,07,23,11,59,20.70
2006,07,23,12,00,20.70
2006,07,23,12,01,20.60
2006,07,23,12,02,20.60
2006,07,23,12,03,20.70
2006,07,23,12,04,20.80
2006,07,23,12,05,20.80
2006,07,23,12,06,20.90
2006,07,23,12,07,20.90
2006,07,23,12,08,20.90
2006,07,23,12,09,20.90
2006,07,23,12,10,20.90
2006,07,23,12,11,20.90
2006,07,23,12,12,21.00
2006,07,23,12,13,21.10
2006,07,23,12,14,21.20
2006,07,23,12,15,21.30
2006,07,23,12,16,21.50
2006,07,23,12,17,21.60
2006,07,23,12,18,21.60
2006,07,23,12,19,21.60
2006,07,23,12,20,21.60
2006,07,23,12,21,21.60
2006,07,23,12,22,21.60
2006,07,23,12,23,21.60
2006,07,23,12,24,21.70
2006,07,23,12,25,21.80
2006,07,23,12,26,21.90
2006,07,23,12,27,21.90
2006,07,23,12,28,21.90
2006,07,23,12,29,21.90
2006,07,23,12,30,22.00
2006,07,23,12,31,22.10
2006,07,23,12,32,22.20
2006,07,23,12,33,22.30
2006,07,23,12,34,22.40
2006,07,23,12,35,22.50
2006,07,23,12,36,22.70
2006,07,23,12,37,22.80
2006,07,23,12,38,22.80
2006,07,23,12,39,22.80
2006,07,23,12,40,22.70
2006,07,23,12,41,22.60
2006,07,23,12,42,22.60
2006,07,23,12,43,22.60
2006,07,23,12,44,22.70
2006,07,23,12,45,22.70
2006,07,23,12,46,22.70
2006,07,23,12,47,22.70
2006,07,23,12,48,22.70
2006,07,23,12,49,22.60
2006,07,23,12,50,22.50
2006,07,23,12,51,22.40
2006,07,23,12,52,22.40
2006,07,23,12,53,22.50
2006,07,23,12,54,22.60
2006,07,23,12,55,22.60
2006,07,23,12,56,22.60
2006,07,23,12,57,22.60
2006,07,23,12,58,22.70
2006,07,23,12,59,22.60
2006,07,23,13,00,22.70
2006,07,23,13,01,22.70
2006,07,23,13,02,22.70
2006,07,23,13,03,22.70
2006,07,23,13,04,22.80
2006,07,23,13,05,22.80
2006,07,23,13,06,22.90
2006,07,23,13,07,22.90
2006,07,23,13,08,22.90
2006,07,23,13,09,22.90
2006,07,23,13,10,22.90
2006,07,23,13,11,23.00
2006,07,23,13,12,23.10
2006,07,23,13,13,23.00
2006,07,23,13,14,23.10
2006,07,23,13,15,23.10
2006,07,23,13,16,23.30
2006,07,23,13,17,23.40
2006,07,23,13,18,23.50
2006,07,23,13,19,23.60
2006,07,23,13,20,23.60
2006,07,23,13,21,23.50
2006,07,23,13,22,23.30
2006,07,23,13,23,23.30
2006,07,23,13,24,23.30
2006,07,23,13,25,23.40
2006,07,23,13,26,23.40
2006,07,23,13,27,23.40
2006,07,23,13,28,23.40
2006,07,23,13,29,23.50
2006,07,23,13,30,23.70
2006,07,23,13,31,23.70
2006,07,23,13,32,23.80
2006,07,23,13,33,23.80
2006,07,23,13,34,23.90
2006,07,23,13,35,24.00
2006,07,23,13,36,24.10
2006,07,23,13,37,24.10
2006,07,23,13,38,24.10
2006,07,23,13,39,24.20
2006,07,23,13,40,24.20
2006,07,23,13,41,24.20
2006,07,23,13,42,24.20
2006,07,23,13,43,24.20
2006,07,23,13,44,24.20
2006,07,23,13,45,24.30
2006,07,23,13,46,24.40
2006,07,23,13,47,24.50
2006,07,23,13,48,24.60
2006,07,23,13,49,24.70
2006,07,23,13,50,24.80
2006,07,23,13,51,25.00
2006,07,23,13,52,25.00
2006,07,23,13,53,25.00
2006,07,23,13,54,25.20
2006,07,23,13,55,25.40
2006,07,23,13,56,25.50
2006,07,23,13,57,25.60
2006,07,23,13,58,25.70
2006,07,23,13,59,25.70
2006,07,23,14,00,25.70
2006,07,23,14,01,25.70
2006,07,23,14,02,25.70
2006,07,23,14,03,25.70
2006,07,23,14,04,25.80
2006,07,23,14,05,25.90
2006,07,23,14,06,25.90
2006,07,23,14,07,25.90
2006,07,23,14,08,26.10
2006,07,23,14,09,26.30
2006,07,23,14,10,26.40
2006,07,23,14,11,26.40
2006,07,23,14,12,26.80
2006,07,23,14,13,26.80
2006,07,23,14,14,26.80
2006,07,23,14,15,26.80
2006,07,23,14,16,26.80
2006,07,23,14,17,26.70
2006,07,23,14,18,26.60
2006,07,23,14,19,26.60
2006,07,23,14,20,26.70
2006,07,23,14,21,26.70
2006,07,23,14,22,26.70
2006,07,23,14,23,26.80
2006,07,23,14,24,26.80
2006,07,23,14,25,26.70
2006,07,23,14,26,26.60
2006,07,23,14,27,26.60
2006,07,23,14,28,26.50
2006,07,23,14,29,26.50
2006,07,23,14,30,26.60
2006,07,23,14,31,26.60
2006,07,23,14,32,26.60
2006,07,23,14,33,26.60
2006,07,23,14,34,26.60
2006,07,23,14,35,26.60
2006,07,23,14,36,26.60
2006,07,23,14,37,26.60
2006,07,23,14,38,26.60
2006,07,23,14,39,26.30
2006,07,23,14,40,25.90
2006,07,23,14,41,25.50
2006,07,23,14,42,25.20
2006,07,23,14,43,24.90
2006,07,23,14,44,24.70
2006,07,23,14,45,24.60
2006,07,23,14,46,24.60
2006,07,23,14,47,24.50
2006,07,23,14,48,24.50
2006,07,23,14,49,24.30
2006,07,23,14,50,24.20
2006,07,23,14,51,24.10
2006,07,23,14,52,24.00
2006,07,23,14,53,23.80
2006,07,23,14,54,23.70
2006,07,23,14,55,23.70
2006,07,23,14,56,23.70
2006,07,23,14,57,23.70
2006,07,23,14,58,23.70
2006,07,23,14,59,23.70
2006,07,23,15,00,23.90
2006,07,23,15,01,24.10
2006,07,23,15,02,24.40
2006,07,23,15,03,24.60
2006,07,23,15,04,24.80
2006,07,23,15,05,24.90
2006,07,23,15,06,24.90
2006,07,23,15,07,25.00
2006,07,23,15,08,25.10
2006,07,23,15,09,25.10
2006,07,23,15,10,25.00
2006,07,23,15,11,25.00
2006,07,23,15,12,25.00
2006,07,23,15,13,25.10
2006,07,23,15,14,25.10
2006,07,23,15,15,25.10
2006,07,23,15,16,25.10
2006,07,23,15,17,25.00
2006,07,23,15,18,24.90
2006,07,23,15,19,24.90
2006,07,23,15,20,24.90
2006,07,23,15,21,24.90
2006,07,23,15,22,24.90
2006,07,23,15,23,24.80
2006,07,23,15,24,24.90
2006,07,23,15,25,24.90
2006,07,23,15,26,25.00
2006,07,23,15,27,25.10
2006,07,23,15,28,25.10
2006,07,23,15,29,25.00
2006,07,23,15,30,24.90
2006,07,23,15,31,24.80
2006,07,23,15,32,24.80
2006,07,23,15,33,24.90
2006,07,23,15,34,24.90
2006,07,23,15,35,24.80
2006,07,23,15,36,24.70
2006,07,23,15,37,24.70
2006,07,23,15,38,24.80
2006,07,23,15,39,24.90
2006,07,23,15,40,24.90
2006,07,23,15,41,25.00
2006,07,23,15,42,25.00
2006,07,23,15,43,24.90
2006,07,23,15,44,24.80
2006,07,23,15,45,24.80
2006,07,23,15,46,24.80
2006,07,23,15,47,24.70
2006,07,23,15,48,24.50
2006,07,23,15,49,24.50
2006,07,23,15,50,24.40
2006,07,23,15,51,24.50
2006,07,23,15,52,24.60
2006,07,23,15,53,24.60
2006,07,23,15,54,24.70
2006,07,23,15,55,24.70
2006,07,23,15,56,24.70
2006,07,23,15,57,24.60
2006,07,23,15,58,24.60
2006,07,23,15,59,24.40
2006,07,23,16,00,24.30
2006,07,23,16,01,24.30
2006,07,23,16,02,24.30
2006,07,23,16,03,24.30
2006,07,23,16,04,24.30
2006,07,23,16,05,24.40
2006,07,23,16,06,24.50
2006,07,23,16,07,24.60
2006,07,23,16,08,24.60
2006,07,23,16,09,24.60
2006,07,23,16,10,24.50
2006,07,23,16,11,24.60
2006,07,23,16,12,24.60
2006,07,23,16,13,24.60
2006,07,23,16,14,24.50
2006,07,23,16,15,24.50
2006,07,23,16,16,24.40
2006,07,23,16,17,24.30
2006,07,23,16,18,24.30
2006,07,23,16,19,24.30
2006,07,23,16,20,24.30
2006,07,23,16,21,24.10
2006,07,23,16,22,24.10
2006,07,23,16,23,24.10
2006,07,23,16,24,24.10
2006,07,23,16,25,24.00
2006,07,23,16,26,23.90
2006,07,23,16,27,23.90
2006,07,23,16,28,24.00
2006,07,23,16,29,24.10
2006,07,23,16,30,24.20
2006,07,23,16,31,24.20
2006,07,23,16,32,24.20
2006,07,23,16,33,24.20
2006,07,23,16,34,24.20
2006,07,23,16,35,24.20
2006,07,23,16,36,24.20
2006,07,23,16,37,24.10
2006,07,23,16,38,24.00
2006,07,23,16,39,23.90
2006,07,23,16,40,23.90
2006,07,23,16,41,23.80
2006,07,23,16,42,23.70
2006,07,23,16,43,23.70
2006,07,23,16,44,23.70
2006,07,23,16,45,23.70
2006,07,23,16,46,23.70
2006,07,23,16,47,23.70
2006,07,23,16,48,23.70
2006,07,23,16,49,23.80
2006,07,23,16,50,23.80
2006,07,23,16,51,23.80
2006,07,23,16,52,23.80
2006,07,23,16,53,23.80
2006,07,23,16,54,23.80
2006,07,23,16,55,23.80
2006,07,23,16,56,23.80
2006,07,23,16,57,23.70
2006,07,23,16,58,23.70
2006,07,23,16,59,23.70
2006,07,23,17,00,23.70
2006,07,23,17,01,23.70
2006,07,23,17,02,23.70
2006,07,23,17,03,23.80
2006,07,23,17,04,23.80
2006,07,23,17,05,23.90
2006,07,23,17,06,24.10
2006,07,23,17,07,24.10
2006,07,23,17,08,24.10
2006,07,23,17,09,24.10
2006,07,23,17,10,24.20
2006,07,23,17,11,24.30
2006,07,23,17,12,24.30
2006,07,23,17,13,24.30
2006,07,23,17,14,24.40
2006,07,23,17,15,24.30
2006,07,23,17,16,24.30
2006,07,23,17,17,24.30
2006,07,23,17,18,24.30
2006,07,23,17,19,24.30